EW0802 Weather Reports


Display with metric or nautical units.
time (UTC)temp
F
wind
direction
speed
MPH
gust
MPH
rain 1hr
in
rain 24hr
in
rain mn
in
humidity
%
barometer
mb
20260901201503 99 96 0.0 3.0 0.00 0.00 0.00 39 1012.2
20260901200007 100 197 1.0 3.0 0.00 0.00 0.00 39 1012.4
20260901194503 99 90 1.0 5.0 0.00 0.00 0.00 40 1012.6
20260901193059 99 40 0.0 3.0 0.00 0.00 0.00 40 1012.8
20260901191559 100 78 1.0 6.0 0.00 0.00 0.00 41 1013.0
20260901190106 101 82 1.0 4.0 0.00 0.00 0.00 40 1013.2
20260901184551 99 242 1.0 4.0 0.00 0.00 0.00 41 1013.4
20260901183049 98 107 0.0 9.0 0.00 0.00 0.00 42 1013.8
20260901181554 98 122 3.0 8.0 0.00 0.00 0.00 42 1013.9
20260901180043 97 236 0.0 5.0 0.00 0.00 0.00 45 1014.2
20260901174542 98 74 1.0 6.0 0.00 0.00 0.00 44 1014.3
20260901173059 97 127 0.0 3.0 0.00 0.00 0.00 44 1014.6
20260901171537 97 163 0.0 3.0 0.00 0.00 0.00 46 1014.8
20260901170033 97 76 2.0 4.0 0.00 0.00 0.00 46 1014.9
20260901164528 96 119 0.0 7.0 0.00 0.00 0.00 48 1015.2
20260901163023 95 296 1.0 6.0 0.00 0.00 0.00 49 1015.3
20260901161519 94 190 2.0 4.0 0.00 0.00 0.00 50 1015.4
20260901160017 93 132 0.0 3.0 0.00 0.00 0.00 53 1015.3
20260901154511 92 254 2.0 6.0 0.00 0.00 0.00 54 1015.4
20260901153005 91 69 1.0 3.0 0.00 0.00 0.00 55 1015.3
20260901151504 90 240 1.0 3.0 0.00 0.00 0.00 59 1015.3
20260901150057 88 124 1.0 3.0 0.00 0.00 0.00 62 1015.3
20260901144555 87 257 0.0 4.0 0.00 0.00 0.00 64 1015.4
20260901143049 86 285 0.0 3.0 0.00 0.00 0.00 67 1015.5
20260901141553 84 157 0.0 3.0 0.00 0.00 0.00 69 1015.5
20260901140043 82 331 0.0 4.0 0.00 0.00 0.00 72 1015.5
20260901134537 81 157 0.0 5.0 0.00 0.00 0.00 73 1015.4
20260901133042 80 131 0.0 1.0 0.00 0.00 0.00 74 1015.4
20260901131535 80 183 0.0 1.0 0.00 0.00 0.00 74 1015.4
20260901130031 79 138 0.0 3.0 0.00 0.00 0.00 74 1015.2
20260901124528 79 107 0.0 3.0 0.00 0.00 0.00 74 1015.0
20260901123024 79 168 0.0 1.0 0.00 0.00 0.00 72 1014.8
20260901121521 79 148 0.0 0.0 0.00 0.00 0.00 71 1014.6
20260901120019 80 148 0.0 0.0 0.00 0.00 0.00 71 1014.4
20260901114518 80 157 0.0 1.0 0.00 0.00 0.00 70 1014.4
20260901113016 80 140 0.0 1.0 0.00 0.00 0.00 70 1014.5
20260901111513 81 180 0.0 1.0 0.00 0.00 0.00 69 1014.2
20260901110023 81 151 0.0 2.0 0.00 0.00 0.00 69 1013.9
20260901104510 81 134 0.0 1.0 0.00 0.00 0.00 68 1014.0
20260901103008 81 86 0.0 3.0 0.00 0.00 0.00 67 1013.9
20260901101509 82 162 0.0 3.0 0.00 0.00 0.00 66 1013.9
20260901100005 82 155 0.0 3.0 0.00 0.00 0.00 65 1013.9
20260901094504 83 167 0.0 2.0 0.00 0.00 0.00 65 1014.1
20260901093002 83 178 0.0 4.0 0.00 0.00 0.00 64 1014.1
20260901091606 84 136 0.0 2.0 0.00 0.00 0.00 64 1014.1
20260901090059 84 188 0.0 4.0 0.00 0.00 0.00 63 1013.9
20260901084557 84 202 1.0 8.0 0.00 0.00 0.00 62 1013.9
20260901083056 85 193 1.0 6.0 0.00 0.00 0.00 61 1014.0
20260901081603 85 159 1.0 7.0 0.00 0.00 0.00 61 1014.1
20260901080055 85 179 1.0 8.0 0.00 0.00 0.00 60 1014.0
20260901074552 85 184 1.0 6.0 0.00 0.00 0.00 58 1014.0
20260901073052 85 121 0.0 3.0 0.00 0.00 0.00 56 1013.9
20260901071556 85 132 0.0 3.0 0.00 0.00 0.00 56 1013.7
20260901070057 85 125 0.0 2.0 0.00 0.00 0.00 55 1013.7
20260901064548 85 140 1.0 6.0 0.00 0.00 0.00 55 1013.6
20260901063043 85 185 0.0 3.0 0.00 0.00 0.00 55 1013.4
20260901061542 85 128 0.0 2.0 0.00 0.00 0.00 54 1013.4
20260901060039 85 184 0.0 0.0 0.00 0.00 0.00 52 1013.2
20260901054538 85 161 0.0 0.0 0.00 0.00 0.00 52 1013.1
20260901053038 85 152 0.0 2.0 0.00 0.00 0.00 51 1013.0
20260901051536 85 96 0.0 1.0 0.00 0.00 0.00 50 1012.7
20260901050031 85 109 0.0 1.0 0.00 0.00 0.00 49 1012.7
20260901044530 86 148 0.0 0.0 0.00 0.00 0.00 48 1012.6
20260901043030 86 166 0.0 1.0 0.00 0.00 0.00 48 1012.7
20260901041528 86 159 0.0 0.0 0.00 0.00 0.00 46 1012.6
20260901040030 87 160 0.0 1.0 0.00 0.00 0.00 45 1012.7
20260901034528 87 136 0.0 1.0 0.00 0.00 0.00 44 1012.7
20260901033043 88 124 0.0 0.0 0.00 0.00 0.00 43 1012.7
20260901031527 88 124 0.0 0.0 0.00 0.00 0.00 42 1012.7
20260901030027 89 124 0.0 0.0 0.00 0.00 0.00 41 1012.5
20260901024528 90 124 0.0 1.0 0.00 0.00 0.00 40 1012.3
20260901023029 90 136 0.0 1.0 0.00 0.00 0.00 40 1012.1
20260901021526 91 136 0.0 1.0 0.00 0.00 0.00 39 1012.0
20260901020024 92 127 0.0 0.0 0.00 0.00 0.00 39 1011.8
20260901014524 93 127 0.0 1.0 0.00 0.00 0.00 39 1011.7
20260901013024 93 102 0.0 1.0 0.00 0.00 0.00 38 1011.5
20260901011523 94 104 0.0 5.0 0.00 0.00 0.00 37 1011.4
20260901010023 94 134 0.0 5.0 0.00 0.00 0.00 36 1011.3
20260901004522 95 148 0.0 4.0 0.00 0.00 0.00 35 1011.3
20260901003022 96 207 1.0 4.0 0.00 0.00 0.00 34 1011.3
20260901001528 96 184 0.0 5.0 0.00 0.00 0.00 35 1011.3
20260901000022 97 32 0.0 8.0 0.00 0.00 0.00 34 1011.3
20260831234533 98 132 1.0 7.0 0.00 0.00 0.00 33 1011.4
20260831233020 99 96 1.0 8.0 0.00 0.00 0.00 32 1011.4
20260831231519 99 132 2.0 5.0 0.00 0.00 0.00 33 1011.3
20260831230019 99 99 1.0 4.0 0.00 0.00 0.00 33 1011.4
20260831224516 99 69 0.0 4.0 0.00 0.00 0.00 34 1011.4
20260831223017 100 125 1.0 7.0 0.00 0.00 0.00 33 1011.5
20260831221523 100 142 1.0 7.0 0.00 0.00 0.00 33 1011.5
20260831220021 99 194 2.0 6.0 0.00 0.00 0.00 33 1011.7
20260831214511 100 151 2.0 9.0 0.00 0.00 0.00 32 1012.0
20260831213027 100 165 2.0 6.0 0.00 0.00 0.00 33 1012.1
20260831211509 99 139 0.0 6.0 0.00 0.00 0.00 34 1012.1
20260831210008 100 140 0.0 10.0 0.00 0.00 0.00 32 1012.3
20260831204507 99 82 1.0 4.0 0.00 0.00 0.00 34 1012.5
20260831203006 99 65 2.0 8.0 0.00 0.00 0.00 33 1012.8